Location: Cheyres
(46.8153°N, 6.7877°E)
Time: 04:26:14
(UTC+00:00)

Nimbus 7 Rocket - Pass Details

Date: 11 May 2021
Orbit: 922 x 965 km, 99.4° (Epoch: 18 June)

Event Time Altitude Azimuth Distance (km) Brightness Sun altitude
Rises 23:17:09 0° 15° (NNE) 3,581 8.6 -25.0°
Reaches altitude 10° 23:19:34 10° 16° (NNE) 2,637 7.7 -25.0°
Maximum altitude 23:25:28 87° 103° (ESE) 938 4.3 -25.0°
Enters shadow 23:26:37 61° 191° (SSW) 1,054 4.3 -25.0°
